EW8138 Weather Reports


Display with metric or nautical units.
time (UTC)temp
F
wind
direction
speed
MPH
gust
MPH
rain 1hr
in
rain 24hr
in
rain mn
in
humidity
%
barometer
mb
20260504050021 50 194 0.0 4.0 0.00 0.00 0.00 71 1010.7
20260504044518 50 193 0.0 2.0 0.00 0.00 0.00 72 1010.9
20260504043017 50 213 0.0 4.0 0.00 0.00 0.00 72 1010.9
20260504041514 49 213 0.0 1.0 0.00 0.00 0.00 73 1011.0
20260504040012 49 220 0.0 8.0 0.00 0.00 0.00 74 1011.2
20260504034511 49 186 0.0 2.0 0.00 0.00 0.00 74 1011.3
20260504033009 49 207 0.0 1.0 0.00 0.00 0.00 74 1011.5
20260504031509 49 211 0.0 0.0 0.00 0.00 0.00 75 1011.5
20260504030007 48 212 0.0 1.0 0.00 0.00 0.00 76 1011.7
20260504024505 48 190 0.0 0.0 0.00 0.00 0.00 77 1011.9
20260504023005 48 203 0.0 0.0 0.00 0.00 0.00 77 1012.0
20260504021504 48 206 0.0 0.0 0.00 0.00 0.00 77 1012.1
20260504020003 49 198 0.0 0.0 0.00 0.00 0.00 76 1012.1
20260504014505 49 199 0.0 0.0 0.00 0.00 0.00 75 1012.1
20260504013003 49 203 0.0 0.0 0.00 0.00 0.00 75 1012.0
20260504011600 50 202 0.0 0.0 0.00 0.00 0.00 74 1011.9
20260504010123 50 205 0.0 0.0 0.00 0.00 0.00 74 1011.9
20260504004559 50 198 0.0 0.0 0.00 0.00 0.00 73 1012.0
20260504003057 50 209 0.0 0.0 0.00 0.00 0.00 71 1012.1
20260504001610 50 206 0.0 9.0 0.00 0.00 0.00 69 1012.2
20260504000105 51 223 0.0 16.0 0.00 0.00 0.00 67 1012.5
20260503234555 51 224 3.0 21.0 0.00 0.00 0.00 65 1012.8
20260503233054 52 250 8.0 22.0 0.00 0.00 0.00 62 1012.7
20260503231555 54 271 5.0 14.0 0.00 0.00 0.00 57 1012.8
20260503230059 57 267 0.0 16.0 0.00 0.00 0.00 49 1012.5
20260503224553 58 238 0.0 7.0 0.00 0.00 0.00 44 1012.1
20260503223051 59 236 0.0 7.0 0.00 0.00 0.00 42 1012.2
20260503221551 59 212 0.0 6.0 0.00 0.00 0.00 41 1012.3
20260503220049 59 238 1.0 11.0 0.00 0.00 0.00 41 1012.4
20260503214554 59 270 0.0 18.0 0.00 0.00 0.00 41 1012.5
20260503213117 60 232 0.0 18.0 0.00 0.00 0.00 40 1012.6
20260503211613 60 248 0.0 12.0 0.00 0.00 0.00 40 1012.6
20260503210044 60 240 5.0 18.0 0.00 0.00 0.00 41 1012.8
20260503204558 60 220 3.0 18.0 0.00 0.00 0.00 39 1012.9
20260503203041 60 224 0.0 19.0 0.00 0.00 0.00 42 1013.1
20260503201540 60 231 0.0 19.0 0.00 0.00 0.00 41 1013.3
20260503200037 60 248 6.0 21.0 0.00 0.00 0.00 41 1013.4
20260503194535 60 244 0.0 10.0 0.00 0.00 0.00 43 1013.5
20260503193033 60 286 1.0 18.0 0.00 0.00 0.00 38 1013.7
20260503191533 61 247 0.0 19.0 0.00 0.00 0.00 41 1014.1
20260503190029 60 216 4.0 21.0 0.00 0.00 0.00 40 1014.3
20260503184527 60 214 4.0 20.0 0.00 0.00 0.00 44 1014.6
20260503183024 59 207 4.0 21.0 0.00 0.00 0.00 44 1014.8
20260503181520 59 294 0.0 22.0 0.00 0.00 0.00 42 1015.0
20260503180028 59 197 4.0 27.0 0.00 0.00 0.00 41 1015.1
20260503174521 59 275 6.0 20.0 0.00 0.00 0.00 40 1015.2
20260503173016 59 234 0.0 20.0 0.00 0.00 0.00 43 1015.4
20260503171518 59 221 10.0 21.0 0.00 0.00 0.00 41 1015.6
20260503081536 32 300 0.0 0.0 0.00 0.00 0.00 90 1016.6